This is the latest recevied weather packets stored in our database for station/object DN9EL-10. If no packets are shown the sender has not sent any weather packets the latest 10 day(s).
| Time | Temp. | Humidity | Pressure | Rain* | Wind** | Luminosity | Snow |
|---|---|---|---|---|---|---|---|
| 1777766615 | 12.78° C | 41% | 962 hPa | - | - | - | - |
| 1777765715 | 13.33° C | 40% | 962.1 hPa | - | - | - | - |
| 1777764815 | 13.33° C | 40% | 962.3 hPa | - | - | - | - |
| 1777763915 | 13.89° C | 39% | 962.4 hPa | - | - | - | - |
| 1777763015 | 13.89° C | 39% | 962.5 hPa | - | - | - | - |
| 1777762115 | 14.44° C | 39% | 962.6 hPa | - | - | - | - |
| 1777761215 | 14.44° C | 38% | 962.6 hPa | - | - | - | - |
| 1777760315 | 15° C | 39% | 962.8 hPa | - | - | - | - |
| 1777759415 | 15° C | 38% | 962.8 hPa | - | - | - | - |
| 1777758515 | 15.56° C | 38% | 962.9 hPa | - | - | - | - |
| 1777757614 | 16.11° C | 38% | 962.9 hPa | - | - | - | - |
| 1777756714 | 16.11° C | 37% | 962.9 hPa | - | - | - | - |
| 1777755814 | 16.67° C | 36% | 963.1 hPa | - | - | - | - |
| 1777754914 | 17.22° C | 36% | 963.1 hPa | - | - | - | - |
| 1777754014 | 17.78° C | 36% | 963.1 hPa | - | - | - | - |
| 1777753114 | 18.33° C | 36% | 963.2 hPa | - | - | - | - |
| 1777752214 | 18.89° C | 35% | 963.3 hPa | - | - | - | - |
| 1777751314 | 19.44° C | 35% | 963.3 hPa | - | - | - | - |
| 1777750414 | 20° C | 34% | 963.4 hPa | - | - | - | - |
| 1777749514 | 20.56° C | 33% | 963.3 hPa | - | - | - | - |
| 1777748614 | 21.11° C | 33% | 963.3 hPa | - | - | - | - |
| 1777747714 | 22.22° C | 32% | 963.3 hPa | - | - | - | - |
| 1777746813 | 22.78° C | 32% | 963.2 hPa | - | - | - | - |
| 1777745913 | 23.89° C | 29% | 963.2 hPa | - | - | - | - |
| 1777745013 | 24.44° C | 29% | 963.2 hPa | - | - | - | - |
* Rain since midnight (hover to see other rain measurements)
** Current wind speed in m/s (hover to see current wind gust speed)